Weather History for Fryeburg, ME

Change the Weather History Date:

Wednesday, January 2, 2013

  Actual Average Record
Temperature  
Mean Temperature 11 °F -  
Max Temperature 21 °F 30 °F 42 °F (2011)
Min Temperature -5 °F 10 °F -24 °F (1999)
Degree Days  
Heating Degree Days 54    
Moisture  
Dew Point -4 °F    
Average Humidity 52    
Maximum Humidity 70    
Minimum Humidity 41    
Precipitation  
Precipitation 0.00 in - - ()
Sea Level Pressure  
Sea Level Pressure 29.93 in    
Wind  
Wind Speed 7 mph (WNW)    
Max Wind Speed 22 mph    
Max Gust Speed 36 mph    
Visibility 10 miles    
Events      
Averages and records for this station are not official NWS values.
T = Trace of Precipitation, MM = Missing Value Source: NWS Daily Summary

Daily Weather History Graph

Daily Weather History Graph

Search for Another Location

Airport:

Trip Planner

Search our weather history database for the weather conditions in past years. The results will help you decide how hot, cold, wet, or windy it might be!

Date:

Astronomy

Jan. 02, 2013 Rise Set
Actual Time 7:18 AM EST 4:17 PM EST
Civil Twilight 6:45 AM EST 4:50 PM EST
Nautical Twilight 6:09 AM EST 5:26 PM EST
Astronomical Twilight 5:34 AM EST 6:01 PM EST
Moon 9:59 PM EST (1/2) 9:47 AM EST (1/2)
Length of Visible Light 10h 04m
Length of Day
8h 59m
Waning Gibbous, 75% of the Moon is Illuminated
Jan 2
Waning Gibbous
Jan 4
Last Quarter
Jan 11
New
Jan 18
First Quarter
Jan 26
Full

Hourly Weather History & Observations

Time (EST) Temp. Windchill Dew Point Humidity Pressure Visibility Wind Dir Wind Speed Gust Speed Precip Events Conditions
12:54 AM 10.9 °F 4.7 °F -2.0 °F 56% 29.86 in 10.0 mi Variable 3.5 mph - N/A   Clear
1:54 AM 12.9 °F -0.2 °F -2.0 °F 51% 29.87 in 10.0 mi NW 10.4 mph 23.0 mph N/A   Mostly Cloudy
2:54 AM 12.9 °F 2.6 °F -2.0 °F 51% 29.86 in 10.0 mi NW 6.9 mph - N/A   Clear
3:54 AM 12.0 °F 2.7 °F -2.0 °F 53% 29.86 in 10.0 mi Variable 5.8 mph - N/A   Clear
4:54 AM 14.0 °F 1.2 °F -0.9 °F 52% 29.85 in 10.0 mi NNW 10.4 mph 17.3 mph N/A   Clear
5:54 AM 12.0 °F 4.1 °F -0.9 °F 56% 29.86 in 10.0 mi NW 4.6 mph - N/A   Clear
7:54 AM 8.1 °F -2.0 °F -0.0 °F 70% 29.86 in 10.0 mi SSW 5.8 mph - N/A   Overcast
8:54 AM 12.9 °F 3.8 °F 3.0 °F 65% 29.86 in 10.0 mi WSW 5.8 mph - 0.00 in   Overcast
9:54 AM 16.0 °F 10.4 °F 5.0 °F 62% 29.88 in 10.0 mi Variable 3.5 mph - 0.00 in   Overcast
10:54 AM 19.9 °F 11.1 °F 3.9 °F 50% 29.87 in 10.0 mi West 6.9 mph - N/A   Partly Cloudy
11:54 AM 21.0 °F 8.1 °F 1.0 °F 42% 29.87 in 10.0 mi West 13.8 mph 24.2 mph N/A   Clear
12:54 PM 19.0 °F 4.5 °F -0.9 °F 42% 29.88 in 10.0 mi WNW 16.1 mph 35.7 mph N/A   Mostly Cloudy
1:54 PM 19.0 °F 2.4 °F -0.9 °F 42% 29.89 in 10.0 mi NNW 21.9 mph 28.8 mph N/A   Clear
2:54 PM 17.1 °F 4.3 °F -2.9 °F 41% 29.90 in 10.0 mi West 11.5 mph 25.3 mph N/A   Clear
3:54 PM 15.1 °F -1.1 °F -5.1 °F 41% 29.94 in 10.0 mi WNW 17.3 mph 26.5 mph N/A   Clear
4:54 PM 10.9 °F 0.2 °F -6.0 °F 47% 30.00 in 10.0 mi Variable 6.9 mph 21.9 mph N/A   Clear
5:54 PM 9.0 °F -2.2 °F -7.1 °F 48% 30.03 in 10.0 mi West 6.9 mph - N/A   Clear
6:54 PM 6.1 °F -0.9 °F -8.0 °F 53% 30.04 in 10.0 mi WNW 3.5 mph - N/A   Clear
7:54 PM 3.9 °F -6.9 °F -11.0 °F 50% 30.05 in 10.0 mi West 5.8 mph - N/A   Clear
8:54 PM 3.9 °F -8.2 °F -11.9 °F 48% 30.05 in 10.0 mi West 6.9 mph - N/A   Clear
9:54 PM 1.0 °F - -13.0 °F 52% 30.05 in 10.0 mi Calm Calm - N/A   Clear
10:54 PM 1.9 °F - -11.9 °F 52% 30.06 in 10.0 mi Calm Calm - N/A   Clear
11:54 PM -5.1 °F - -14.1 °F 65% 30.06 in 10.0 mi Calm Calm - N/A   Clear